AirNav   Phillips 66 Aviation Fuel
 
 1209 users online  

97Y Genoa Municipal Airport
Genoa, Nebraska, USA

GOING TO GENOA?


FAA INFORMATION EFFECTIVE 16 AUGUST 2018

Location

FAA Identifier: 97Y
Lat/Long: 41-24-15.0480N / 097-42-31.1860W
41-24.250800N / 097-42.519767W
41.4041800 / -97.7086628
(estimated)
Elevation: 1570 ft. / 478.5 m (surveyed)
Variation: 07E (1985)
From city: 3 miles SE of GENOA, NE
Time zone: UTC -5 (UTC -6 during Standard Time)
Zip code: 68640

Airport Operations

Airport use: Open to the public
Activation date: 12/1971
Control tower: no
ARTCC: MINNEAPOLIS CENTER
FSS: COLUMBUS FLIGHT SERVICE STATION
NOTAMs facility: OLU (NOTAM-D service available)
Attendance: UNATNDD
Pattern altitude: 2370 ft. MSL
Wind indicator: yes
Segmented circle: no

Airport Communications

CTAF/UNICOM: 122.8
WX AWOS-3PT at OLU (17 nm E): 125.525 (402-563-3895)

Nearby radio navigation aids

VOR radial/distance  VOR name  Freq  Var
OLUr253/16.8COLUMBUS VOR/DME111.8008E
OBHr080/29.1WOLBACH VORTAC114.8007E
OFKr191/37.1NORFOLK VOR/DME109.6008E
GRIr040/37.2GRAND ISLAND VOR/DME112.0007E

 
NDB name  Hdg/Dist  Freq  Var  ID
PLATTE CENTER241/15.740708EPLT .--. .-.. -
YORK346/30.725706EJYR .--- -.-- .-.

Airport Services

Fuel available: 100LL
FOR FUEL CALL (402) 933-6000 OR (402) 933-2324.
Parking: tiedowns
Airframe service: NONE
Powerplant service: NONE
Bottled oxygen: NONE
Bulk oxygen: NONE

Runway Information

Runway 11/29

Dimensions: 2500 x 75 ft. / 762 x 23 m
Surface: turf, in good condition
RUNWAY 11  RUNWAY 29
Traffic pattern: leftleft
Obstructions: 17 ft. road, 360 ft. from runway, 21:1 slope to clear4 ft. fence, 43 ft. from runway, 81 ft. left of centerline, 10:1 slope to clear

Airport Ownership and Management from official FAA records

Ownership: Publicly-owned
Owner: GENOA AIRPORT AUTHORITY
PO BOX 501
GENOA, NE 68640-0501
Manager: DON PEARSON
GENOA ARPT AUTH, PO BOX 501
GENOA, NE 68640
Phone 402-948-0067

Airport Operational Statistics

Aircraft based on the field: 3
Single engine airplanes: 3
    
Aircraft operations: avg 20/week *
57% local general aviation
38% transient general aviation
5% military
* for 12-month period ending 11 May 2017

Instrument Procedures

There are no published instrument procedures at 97Y.

Some nearby airports with instrument procedures:

KOLU - Columbus Municipal Airport (17 nm E)
07K - Central City Municipal Airport - Larry Reineke Field (23 nm SW)
KBVN - Albion Municipal Airport (25 nm NW)
93Y - David City Municipal Airport (28 nm E)
KJYR - York Municipal Airport (31 nm S)
 
Loc | Ops | Rwys | IFR | FBO | Links
Com | Nav | Svcs | Stats | Notes

Silverhawk Aviation, Inc.
AirBoss

 
Area around 97Y (Genoa Municipal Airport)
 
Road maps at: MapQuest Bing Google
 
Aerial photo
WARNING: Photo may not be current or correct
Aerial photo of 97Y (Genoa Municipal Airport)
Do you have a better or more recent aerial photo of Genoa Municipal Airport that you would like to share? If so, please send us your photo.

 
Sectional chart

 
Airport distance calculator
Flying to Genoa Municipal Airport? Find the distance to fly.

From to 97Y

Sunrise and sunset
Times for 20-Aug-2018
 Local
(UTC-5)
 Zulu
(UTC)
Morning civil twilight06:1711:17
Sunrise06:4611:46
Sunset20:2201:22
Evening civil twilight20:5201:52

Current date and time
Zulu (UTC)  20-Aug-2018 22:36:20
Local (UTC-5)  20-Aug-2018 17:36:20
 
METAR
KOLU 
18nm E 
202224Z AUTO 33018G24KT 10SM FEW020 BKN041 OVC055 21/18 A2999 RMK AO2
KBVN 
25nm NW 
202215Z AUTO 35014G20KT 10SM BKN020 OVC044 22/17 A3004 RMK AO2 T02160169
KJYR 
31nm S 
202215Z AUTO 33015G21KT 10SM BKN021 BKN026 OVC032 20/17 A3000 RMK AO2
KAUH 
34nm SW 
202215Z AUTO 35016G23KT 10SM OVC026 20/17 A3003 RMK AO2 T02040169
TAF
KOFK 
37nm N 
201721Z 2018/2118 35016G29KT P6SM VCSH OVC010 FM202000 35016G28KT P6SM OVC020 FM202200 35014G25KT P6SM BKN040 FM210100 35009KT P6SM SCT090 FM211700 35008KT P6SM BKN130
KGRI 
38nm SW 
202140Z 2022/2118 35017G24KT P6SM BKN025 BKN035 FM210000 35015KT P6SM FEW035 FM210300 34007KT P6SM FEW250 FM211500 36008KT P6SM SCT200
NOTAMs
Click for the latest NOTAMs
NOTAMs are issued by the DoD/FAA and will open in a separate window not controlled by AirNav.

 

 
 

FBO, Fuel Providers, and Aircraft Ground Support

  
 Business Name 
 
 Contact 
 
 Services / Description 
 
Fuel Prices
 
Comments
  
Genoa Municipal Airport 402-993-6000
no information available

If you are affiliated with Genoa Municipal Airport and would like to show here your services, contact info, web link, logo, and more, click here
100LL
AS $4.00 
 Updated 18-Jul-2017
 
   write
AS=Assisted/Self Service
Update Fuel Prices
 

Would you like to see your business listed on this page?

 If your business provides an interesting product or service to pilots, flight crews, aircraft, or users of the Genoa Municipal Airport, you should consider listing it here.  To start the listing process, click on the button below
 
Add a business
 

Other Pages about Genoa Municipal Airport

Update a link
 
Copyright © AirNav, LLC. All rights reserved. Privacy Policy  Contact